Tracking 32460 objects as of 12-Dec-2025
HD Live streaming from Space Station
objects crossing your sky now

STARLINK-2421

Track STARLINK-2421 now!
10-day predictions
STARLINK-2421 is classified as:


NORAD ID: 48098
Int'l Code: 2021-027G
Perigee: 553.0 km
Apogee: 555.6 km
Inclination: 53.1 °
Period: 95.6 minutes
Semi major axis: 6925 km
RCS: Unknown
Launch date: April 7, 2021
Source: United States (US)
Launch site: AIR FORCE EASTERN TEST RANGE (AFETR)
Your satellite tracking list
Your tracking list is empty




NASA's NSSDC Master Catalog

Two Line Element Set (TLE):
1 48098U 21027G   25345.59671480  .00002093  00000-0  15934-3 0  9999
2 48098  53.0516 197.0842 0001866  89.4299 270.6904 15.06408612259270
Source of the keplerian elements: AFSPC